Location: Rehoboth Beach
(38.7438°N, 75.1341°W)
Time: 09:40:50
(UTC-04:00)

Cosmos 1452 Rocket - Visible Passes

Search period start: 25 July 2014 00:00
Search period end: 04 August 2014 00:00
Orbit: 769 x 776 km, 74.1° (Epoch: 24 July)

Date Brightness Start Highest point End Pass type
(mag) Time Alt. Az. Time Alt. Az. Time Alt. Az.
25 Jul 5.3 00:32:40 10° N 00:36:47 23° ENE 00:36:55 23° ENE visible
25 Jul 4.8 02:14:09 10° NNW 02:17:15 31° WNW 02:17:15 31° WNW visible
25 Jul 5.8 23:57:59 10° NNE 00:00:44 14° NE 00:01:30 14° ENE visible
26 Jul 4.4 01:38:13 10° NNW 01:41:49 44° NNW 01:41:49 44° NNW visible
27 Jul 4.3 01:02:31 10° NNW 01:06:26 48° N 01:06:26 48° N visible
28 Jul 4.7 00:27:01 10° N 00:31:04 36° NE 00:31:04 36° NE visible
28 Jul 5.6 02:09:44 10° NW 02:11:24 17° WNW 02:11:24 17° WNW visible
28 Jul 5.2 23:51:47 10° N 23:55:45 24° NE 23:55:45 24° NE visible
29 Jul 5.1 01:33:25 10° NW 01:36:05 27° NW 01:36:05 27° NW visible
29 Jul 5.6 23:16:58 10° NNE 23:20:01 15° ENE 23:20:27 15° ENE visible
30 Jul 4.7 00:57:27 10° NNW 01:00:47 39° NW 01:00:47 39° NW visible
31 Jul 4.4 00:21:43 10° NNW 00:25:31 47° N 00:25:31 47° N visible
31 Jul 4.5 23:46:11 10° N 23:50:16 39° NE 23:50:16 39° NE visible
01 Aug 5.7 01:29:06 10° NW 01:30:36 16° WNW 01:30:36 16° WNW visible
01 Aug 4.9 23:10:54 10° N 23:15:03 26° ENE 23:15:03 26° ENE visible
02 Aug 5.2 00:52:43 10° NW 00:55:23 26° WNW 00:55:23 26° WNW visible
02 Aug 5.4 22:36:00 10° NNE 22:39:18 17° ENE 22:39:51 16° ENE visible
03 Aug 4.6 00:16:42 10° NNW 00:20:12 41° NW 00:20:12 41° NW visible
03 Aug 4.1 23:40:55 10° NNW 23:45:02 54° N 23:45:02 54° N visible
